GSAT0104 (PRN E20)

Last updated on Jan. 19, 2021, 6:23 a.m. UTC

1 38858U 12055B   21018.79139725  .00000028  00000-0  00000-0 0  9990
2 38858  55.0176 155.8543 0000753 219.1291 140.8231  1.70473646 51484
UTC
Height (km)
Latitude
Longitude
Inclination
Orbital Period
UTC large
Height (km)
Speed (km/s)
/
Latitude / Longitude
Inclination (degrees)
Orbital Period (minutes)
Azimuth
Elevation
Range (km)
Doppler Factor
iOS Compass Heading
iOS Angle

Next 30 passes for location: Hong Kong

Rise time Rise Azimuth (degrees) Set time Set Azimuth (degrees) Duration Max altitude (degrees)

No matching passes for this satellites